Probability
0 0 0 0 1 2 2 1 1 1 2 4 5 6 7 9 10 12 13 14 18 23 28 30 32 33 30 25 21 19 18 18 19 20 21 21 20 18 18 18 18 17 17 18
0 0 0 0 1 2 2 2 1 1 2 4 4 5 6 8 11 13 14 15 18 25 29 29 31 33 30 26 24 22 21 22 22 21 21 22 21 20 20 21 22 21 19 19
0 0 0 0 0 1 1 1 1 1 2 3 3 4 6 8 12 14 16 18 21 26 30 31 31 30 28 26 27 27 25 25 24 21 21 22 22 21 22 26 29 27 23 22
0 0 0 0 0 0 0 0 1 1 3 4 4 5 7 9 13 16 18 21 23 26 31 34 33 30 28 27 28 30 30 29 26 23 23 23 23 22 24 29 33 32 29 27
0 0 0 0 0 0 0 0 1 3 5 6 6 7 9 12 14 16 18 22 24 25 29 35 35 34 32 30 29 30 31 31 30 29 28 27 25 24 25 30 34 36 33 30
0 0 0 0 0 0 0 0 1 4 7 8 7 8 10 13 15 15 19 23 25 25 28 33 35 36 34 30 29 29 29 30 31 31 32 31 29 27 26 28 32 35 33 30
0 0 0 0 0 1 1 0 2 4 7 7 7 8 10 14 16 18 21 25 28 29 30 33 34 33 30 26 25 26 27 28 30 32 32 32 31 30 28 28 30 33 32 30
0 0 0 1 1 2 2 1 3 4 6 6 6 7 9 13 16 19 22 25 29 32 33 33 32 30 26 23 22 22 23 25 28 31 33 33 33 33 33 31 30 30 30 30
1 1 2 2 3 3 3 3 4 5 6 7 6 7 8 10 12 15 19 24 27 30 32 32 30 28 25 23 21 19 19 21 24 29 31 32 33 34 33 31 28 27 28 30
3 3 2 3 3 4 4 4 6 7 8 7 7 7 9 10 11 14 19 24 26 27 30 31 30 27 25 23 21 19 17 18 21 23 25 26 28 28 28 26 24 24 25 27
5 4 3 3 4 4 5 5 6 7 7 6 6 6 8 12 15 18 21 23 24 24 26 28 28 26 25 23 21 19 17 17 17 17 19 21 22 22 21 19 17 16 18 20
5 4 4 5 5 5 5 6 6 7 6 6 5 5 8 12 15 17 19 19 20 20 21 21 23 22 22 22 22 20 17 15 15 16 17 19 19 18 16 12 8 6 8 10
6 5 5 6 6 5 4 5 6 7 8 8 7 6 8 11 12 13 14 15 16 15 15 16 17 17 18 20 21 19 15 12 14 16 16 16 17 17 16 12 7 4 2 2
6 6 5 6 6 6 5 4 4 7 10 11 9 8 10 11 11 10 11 13 13 12 12 12 12 13 15 16 16 15 11 10 12 14 14 13 14 16 17 16 12 9 5 3
5 5 6 6 6 6 6 5 4 6 10 11 10 10 11 12 11 10 10 11 9 8 8 8 7 8 10 11 11 11 9 9 10 11 12 12 13 15 16 17 16 14 11 8
4 5 6 6 6 6 6 6 5 5 7 9 10 10 10 11 11 9 9 8 6 5 5 5 4 5 6 8 9 10 8 8 9 10 10 11 12 13 15 17 17 16 14 12
6 6 6 6 6 6 6 6 6 6 6 7 8 8 8 10 9 8 7 6 5 3 4 5 4 4 5 6 8 8 7 7 8 9 10 10 11 12 14 16 16 16 15 15
6 6 6 6 6 6 6 6 6 6 6 6 5 5 7 9 8 7 6 6 5 4 4 4 5 5 5 6 7 6 5 5 6 9 9 9 10 11 13 14 15 15 14 14
4 4 4 5 6 6 6 6 6 6 5 5 3 3 5 7 7 6 6 6 6 5 4 4 4 4 4 5 6 5 3 3 5 7 8 8 8 10 11 12 12 12 11 10
1 1 1 3 5 6 5 5 4 3 3 2 1 1 2 3 4 4 5 6 5 4 3 3 4 4 3 4 4 4 3 3 3 4 5 5 6 6 7 8 8 7 6 5
0 1 1 2 3 4 4 3 2 1 1 0 0 0 0 1 2 3 4 4 3 2 1 1 2 3 2 3 3 3 2 2 2 2 3 3 3 3 3 4 4 4 3 3
2 2 2 3 3 3 3 3 2 2 2 1 1 0 0 1 1 2 2 2 2 1 0 1 1 1 1 1 2 1 1 1 1 1 1 1 1 1 1 1 3 3 3 2
4 3 3 3 3 3 3 3 3 3 3 3 2 1 0 0 0 1 1 1 1 0 0 1 0 0 0 0 0 0 0 0 0 0 0 0 0 0 0 1 2 2 2 1
5 4 3 3 3 3 3 2 2 2 2 3 2 1 0 0 0 0 0 0 0 0 0 0 0 0 0 0 0 0 0 0 0 0 0 0 0 0 0 0 1 1 1 1
8 5 3 3 3 2 1 1 1 1 1 1 1 0 0 0 0 0 0 0 0 0 0 0 0 0 0 0 0 0 0 0 0 0 0 0 0 0 0 0 0 0 0 0
7 5 4 3 2 1 0 0 0 0 0 0 0 0 0 0 0 0 0 0 0 0 0 0 0 0 0 0 0 0 0 0 0 0 0 0 0 0 0 0 0 0 0 0
5 4 4 3 2 1 0 0 0 0 0 0 0 0 0 0 0 0 0 0 0 0 0 0 0 0 0 0 0 0 0 0 0 0 0 0 0 0 0 0 0 0 0 0
Wind_Speed
6 3 4 6 7 8 9 9 8 5 5 2 0 1 1 1 2 3 4 5 6 7 6 6 5 5 5 5 5 5 5 5 5 4 4 4 4 4 4 4 4 3 4 4
7 6 6 8 8 8 9 8 8 7 5 1 1 1 1 2 2 3 4 5 5 6 6 6 6 5 5 5 4 5 4 4 4 4 3 3 4 4 4 4 4 4 4 4
8 7 9 11 8 8 8 7 7 7 4 1 2 2 2 2 2 2 3 4 5 5 5 5 5 5 5 5 5 4 4 3 3 4 3 3 3 3 3 4 4 4 4 4
6 7 11 1 1 3 5 5 5 5 3 3 3 2 2 2 2 3 3 3 4 4 5 5 5 5 4 5 5 5 4 3 3 3 3 3 3 3 3 3 4 4 4 5
7 9 8 4 4 4 5 5 3 3 2 2 2 3 3 2 1 2 2 2 2 3 4 4 4 5 5 4 5 4 4 3 3 3 3 3 2 2 3 3 4 4 4 4
7 9 9 2 5 1 5 5 1 1 1 1 3 5 2 3 1 1 1 2 2 3 4 5 5 5 5 4 4 3 3 3 3 3 3 3 2 2 2 3 3 4 3 4
10 10 5 4 3 4 7 2 4 2 1 2 2 4 3 1 1 1 1 1 2 2 3 4 5 5 4 4 3 3 2 2 3 3 3 3 2 2 2 3 3 3 4 4
8 10 3 4 2 2 4 4 2 2 2 2 2 2 1 1 1 0 0 1 2 2 3 3 4 4 4 3 2 2 2 2 2 2 3 2 2 2 3 3 3 4 4 4
3 2 4 2 2 3 3 3 2 2 2 2 2 1 1 0 0 0 1 1 1 2 3 3 3 4 4 3 3 2 2 2 2 2 2 2 2 3 3 3 3 3 3 3
3 2 1 1 1 2 2 3 3 2 2 2 1 1 1 1 1 1 1 1 2 2 2 2 2 2 2 2 2 3 3 2 2 2 2 2 2 2 2 2 3 3 3 3
5 4 3 2 2 3 3 3 3 2 2 2 2 2 2 2 2 2 1 1 1 2 1 1 2 2 2 2 3 3 2 2 2 3 2 2 2 2 3 2 3 4 4 3
4 3 4 3 3 4 3 3 2 2 2 2 3 3 3 3 2 2 2 1 1 1 1 1 1 1 1 1 2 3 3 3 3 3 2 2 2 2 1 2 1 3 4 5
4 5 5 5 4 4 4 3 3 3 3 3 3 3 3 2 2 2 2 2 1 1 1 1 1 1 2 2 2 3 2 2 3 3 3 3 3 3 3 3 4 5 5 4
3 4 4 4 4 4 4 4 4 4 3 3 3 3 2 2 2 2 2 2 2 1 1 1 1 2 2 2 3 3 4 3 3 3 4 4 4 4 4 4 3 3 4 6
4 5 5 5 5 4 4 4 4 4 4 3 3 3 2 2 3 3 2 2 2 2 2 2 2 2 2 3 3 4 3 3 3 3 4 4 4 4 4 5 4 4 3 3
5 5 6 5 5 5 5 5 5 4 4 4 3 3 3 3 3 3 3 3 3 3 2 3 3 3 3 3 3 3 3 3 4 4 4 4 4 4 4 4 4 4 4 2
7 7 6 6 6 6 6 6 5 4 4 4 4 3 3 3 4 3 3 3 3 3 3 3 4 4 3 3 4 4 3 3 5 5 4 4 4 4 4 5 4 4 3 2
8 8 7 7 7 6 6 5 5 4 4 4 4 4 5 4 4 4 4 3 3 3 4 4 4 4 3 4 4 4 3 3 4 4 4 4 4 5 5 5 5 5 4 2
4 5 5 5 5 4 4 4 4 4 4 4 4 4 4 4 4 4 4 4 4 4 4 3 3 4 4 3 4 4 4 4 4 4 4 4 5 5 5 4 4 4 4 3
3 3 3 3 3 4 3 3 3 4 3 3 4 4 5 5 5 4 4 4 4 4 3 3 3 4 4 3 4 5 5 5 5 4 4 4 4 4 4 4 4 4 4 4
3 3 3 3 3 4 4 3 3 4 4 4 4 5 5 5 5 5 5 5 3 3 4 3 3 3 3 2 4 5 5 5 4 4 4 4 5 4 5 4 4 4 3 3
4 3 3 3 3 3 3 3 3 3 3 3 4 4 4 5 5 5 5 4 3 2 3 3 3 1 2 3 4 4 4 4 4 4 4 4 4 4 4 4 4 3 3 3
4 3 3 3 3 3 3 3 2 2 2 3 3 4 4 4 4 4 4 3 3 2 3 2 1 2 1 4 3 4 4 4 4 4 4 4 4 4 4 4 4 3 3 3
3 3 3 3 3 2 2 2 2 2 2 2 3 3 4 4 3 3 3 2 2 2 2 0 1 2 4 4 4 4 4 4 4 4 4 4 4 4 4 4 3 3 3 4
4 4 4 3 2 2 1 2 2 2 2 2 2 3 3 3 3 2 2 2 1 2 2 3 4 4 4 3 3 3 3 3 4 4 4 4 4 3 3 3 3 3 3 3
3 3 2 2 2 2 2 2 2 1 2 2 2 2 2 1 2 2 2 2 2 2 2 2 2 3 3 2 3 3 3 3 3 4 4 4 4 4 3 3 4 3 3 3
3 2 2 2 1 1 1 1 2 2 2 2 2 2 1 1 1 1 1 2 2 2 2 2 2 2 2 2 2 2 3 3 3 2 3 3 3 2 3 4 3 3 3 3
Wind_Direction
259 269 243 239 227 220 235 257 270 269 268 278 272 235 176 174 181 170 164 166 166 166 166 168 169 170 173 178 181 182 188 195 196 204 206 214 217 219 218 225 230 232 244 244
227 229 238 249 237 231 235 248 255 264 272 334 134 195 176 168 183 189 176 173 173 172 171 177 177 177 173 178 179 183 191 193 191 200 203 209 215 221 224 226 233 237 243 247
226 214 237 235 231 232 234 242 258 260 270 266 240 234 224 203 194 201 197 183 181 180 181 182 183 176 175 177 176 180 185 186 181 187 193 205 221 224 234 236 231 234 240 245
238 223 236 225 128 233 241 250 258 273 276 256 259 246 242 218 212 213 217 203 188 186 183 181 173 167 168 166 165 164 167 172 177 186 191 199 214 226 235 240 236 236 240 245
241 237 242 201 185 221 238 247 254 263 273 268 261 226 200 185 235 235 222 220 206 198 182 166 160 155 157 161 164 165 166 172 179 187 194 204 218 232 238 243 243 240 237 242
237 245 247 190 122 174 241 223 128 291 295 282 244 238 146 72 5 288 247 211 211 195 172 154 153 156 162 162 164 174 178 184 190 194 198 206 214 230 240 245 248 252 246 248
239 242 239 70 121 201 232 63 57 355 330 278 271 332 19 11 327 298 226 194 185 179 168 157 158 161 166 167 174 183 186 192 206 207 208 210 214 227 240 244 247 253 252 250
235 241 222 69 174 244 6 23 8 351 335 311 319 346 3 1 10 10 146 160 167 163 156 156 163 166 166 176 181 180 188 200 219 233 238 197 202 224 233 238 237 239 239 243
268 324 43 54 28 8 338 316 323 327 325 300 296 315 344 345 343 12 151 162 178 164 159 165 174 178 177 181 178 177 188 203 218 225 236 229 225 229 230 230 244 244 244 247
243 221 244 275 311 315 307 299 304 303 295 279 274 292 275 255 261 258 218 199 197 172 176 178 184 189 182 179 185 193 199 207 217 223 227 217 243 246 252 255 258 259 260 262
241 255 257 252 298 305 311 307 301 299 296 287 278 275 269 258 248 243 234 230 201 170 157 182 187 193 197 193 199 202 207 224 237 236 234 235 246 284 276 289 300 287 285 283
258 270 274 289 305 302 291 288 294 295 290 283 269 266 263 260 256 242 230 225 218 194 158 151 205 228 230 222 220 224 224 229 240 242 236 241 234 235 211 254 227 239 268 279
284 300 297 295 289 295 288 289 287 279 277 276 274 266 259 256 252 246 237 233 232 232 228 227 233 246 256 240 231 235 249 258 261 257 246 251 251 254 247 219 214 223 227 239
280 277 273 280 284 289 288 289 282 275 269 269 267 260 258 257 258 247 249 252 249 245 246 254 266 265 256 241 236 243 252 245 252 253 253 253 253 255 257 260 251 240 206 201
269 266 274 281 278 275 275 276 271 265 258 252 250 247 247 255 255 248 237 230 222 233 242 247 258 264 258 246 239 246 256 259 259 264 258 257 259 260 262 264 266 265 257 183
274 268 265 266 270 275 274 271 268 265 267 260 255 250 249 254 255 245 230 224 223 230 240 248 255 260 258 255 245 242 242 256 263 264 260 252 251 258 262 262 265 267 269 270
265 264 265 270 272 271 274 274 270 273 269 262 259 256 251 254 256 249 243 236 239 246 249 254 257 256 249 248 254 256 254 227 220 250 260 264 263 262 263 265 266 265 265 272
263 270 271 272 274 274 274 271 269 269 267 266 265 256 248 245 252 254 252 251 250 253 256 256 259 257 250 252 257 264 261 259 249 253 259 261 267 263 261 262 264 265 264 227
278 280 278 277 278 279 279 278 276 270 264 261 258 256 253 254 257 257 254 245 245 251 258 259 249 247 246 248 257 246 256 259 259 258 260 250 249 256 262 264 268 265 265 268
299 297 290 283 281 280 278 278 280 275 268 261 260 262 260 259 258 253 250 252 257 272 275 275 260 255 256 247 256 254 254 254 257 259 259 262 260 260 262 264 266 268 269 269
309 303 302 295 290 286 281 276 271 268 267 259 253 255 259 264 259 250 247 253 256 266 264 240 251 261 262 272 244 260 261 257 257 257 255 258 260 262 263 266 268 268 269 272
305 302 301 298 290 289 292 281 268 265 265 259 260 260 259 259 256 253 250 261 269 255 255 251 251 284 309 282 262 265 264 262 261 262 261 259 259 261 262 265 266 268 270 272
299 300 296 291 289 295 295 286 272 260 262 269 271 268 267 272 272 264 260 256 259 239 252 272 2 54 290 259 262 262 261 260 261 264 268 268 266 266 267 268 267 264 266 268
307 300 291 283 281 277 281 291 284 266 265 270 272 276 276 270 267 267 268 230 226 231 251 213 155 228 248 254 260 261 262 263 262 266 272 274 274 274 275 274 275 280 279 276
300 292 287 276 260 259 265 269 261 247 246 252 261 263 263 268 275 282 283 277 227 229 241 198 195 216 238 256 261 265 265 269 276 284 279 277 281 282 279 278 284 288 281 278
288 287 291 285 287 278 267 271 278 278 263 263 270 272 276 277 274 271 257 258 266 262 264 260 234 221 248 263 270 272 274 265 252 257 273 281 281 281 286 292 287 285 285 283
273 266 259 262 262 274 288 293 291 291 291 288 295 304 299 290 289 297 293 280 266 252 250 261 271 262 257 264 269 269 277 283 282 281 281 281 285 291 291 288 292 296 293 290